LPR42 EPKK-EPBY

Flight info

Callsign LPR42
Flight time 0h 51m
Altitude 33000
Route NAVUR N744 OVBOR/N0371F340 N133 BIBKA Z96 INTUN
Aircraft P180/L-SBDFGM3RWXY/LB1

Departure

Time 2026-05-05 12:23
Airport Kraków John Paul II International Airport (EPKK)

Arrival

Time 2026-05-05 13:14
Airport Ignacy Jan Paderewski Bydgoszcz Airport (EPBY)
Time Latitude Longitude Altitude Speed Heading
2026-05-05 12:09 50.07604 19.80228 783 ft 0 kts 347°
2026-05-05 12:19 50.07607 19.80227 783 ft 2 kts 347°
2026-05-05 12:19 50.07641 19.80229 783 ft 8 kts 38°
2026-05-05 12:20 50.07661 19.80333 783 ft 13 kts 79°
2026-05-05 12:20 50.07744 19.80370 783 ft 17 kts 347°
2026-05-05 12:20 50.07844 19.80336 783 ft 9 kts 348°
2026-05-05 12:20 50.07846 19.80335 783 ft 0 kts 347°
2026-05-05 12:21 50.07883 19.80322 783 ft 25 kts 347°
2026-05-05 12:22 50.08018 19.80224 783 ft 19 kts 258°
2026-05-05 12:22 50.08007 19.80158 783 ft 7 kts 258°
2026-05-05 12:22 50.07909 19.79447 783 ft 126 kts 257°
2026-05-05 12:22 50.07685 19.77747 993 ft 183 kts 253°
2026-05-05 12:23 50.07381 19.75743 1836 ft 201 kts 252°
2026-05-05 12:23 50.07048 19.73540 2721 ft 222 kts 252°
2026-05-05 12:23 50.06697 19.71104 3786 ft 225 kts 255°
2026-05-05 12:23 50.06429 19.68795 5262 ft 214 kts 255°
2026-05-05 12:24 50.06436 19.66297 5933 ft 255 kts 279°
2026-05-05 12:24 50.07393 19.63983 7178 ft 252 kts 310°
2026-05-05 12:24 50.08862 19.62676 8807 ft 241 kts 338°
2026-05-05 12:24 50.10514 19.62092 10062 ft 246 kts 344°
2026-05-05 12:25 50.12214 19.61583 11156 ft 252 kts 345°
2026-05-05 12:25 50.13979 19.61703 12178 ft 266 kts 15°
2026-05-05 12:25 50.15601 19.63209 13252 ft 272 kts 39°
2026-05-05 12:25 50.17031 19.65186 14216 ft 277 kts 43°
2026-05-05 12:26 50.18441 19.67208 15109 ft 281 kts 42°
2026-05-05 12:26 50.19931 19.69234 16000 ft 286 kts 40°
2026-05-05 12:26 50.21457 19.71266 16881 ft 290 kts 40°
2026-05-05 12:26 50.22990 19.73341 17742 ft 294 kts 41°
2026-05-05 12:27 50.24545 19.75468 18438 ft 302 kts 41°
2026-05-05 12:27 50.26095 19.77588 19463 ft 292 kts 41°
2026-05-05 12:27 50.27630 19.79679 20264 ft 294 kts 40°
2026-05-05 12:27 50.29180 19.81791 21057 ft 297 kts 40°
2026-05-05 12:28 50.30739 19.83921 21907 ft 299 kts 40°
2026-05-05 12:28 50.32310 19.86068 22770 ft 301 kts 40°
2026-05-05 12:28 50.33898 19.88231 23612 ft 304 kts 39°
2026-05-05 12:28 50.35713 19.89893 24350 ft 304 kts 15°
2026-05-05 12:29 50.37085 19.90247 24871 ft 302 kts
2026-05-05 12:29 50.39196 19.90300 25675 ft 304 kts 356°
2026-05-05 12:29 50.41319 19.90254 26482 ft 307 kts 356°
2026-05-05 12:29 50.43468 19.90261 27332 ft 311 kts 357°
2026-05-05 12:30 50.45640 19.90315 28205 ft 314 kts 357°
2026-05-05 12:30 50.47841 19.90362 29122 ft 318 kts 357°
2026-05-05 12:30 50.50068 19.90387 30041 ft 323 kts 356°
2026-05-05 12:30 50.52326 19.90411 30872 ft 326 kts 356°
2026-05-05 12:31 50.54596 19.90445 31825 ft 325 kts 356°
2026-05-05 12:31 50.56853 19.90481 32774 ft 325 kts 356°
2026-05-05 12:31 50.59193 19.90503 32867 ft 351 kts 356°
2026-05-05 12:31 50.61729 19.90528 32860 ft 378 kts 356°
2026-05-05 12:32 50.64446 19.90573 32860 ft 402 kts 357°
2026-05-05 12:32 50.67310 19.90635 32863 ft 421 kts 357°
2026-05-05 12:32 50.73252 19.90716 32854 ft 426 kts 358°
2026-05-05 12:33 50.76183 19.90845 33219 ft 410 kts 358°
2026-05-05 12:33 50.78928 19.90970 33863 ft 380 kts 356°
2026-05-05 12:33 50.81490 19.90930 34340 ft 356 kts 354°
2026-05-05 12:33 50.83894 19.90739 34733 ft 337 kts 353°
2026-05-05 12:34 50.86204 19.90796 34872 ft 331 kts 358°
2026-05-05 12:34 50.88500 19.91040 34404 ft 331 kts 359°
2026-05-05 12:34 50.90817 19.91159 33884 ft 333 kts 355°
2026-05-05 12:34 50.93146 19.91100 33436 ft 335 kts 354°
2026-05-05 12:35 50.95446 19.91043 33105 ft 336 kts 355°
2026-05-05 12:35 50.97791 19.91103 32895 ft 344 kts 359°
2026-05-05 12:35 51.00209 19.91730 32853 ft 361 kts 11°
2026-05-05 12:35 51.02615 19.93123 32844 ft 375 kts 22°
2026-05-05 12:36 51.04893 19.95273 32846 ft 387 kts 32°
2026-05-05 12:36 51.07199 19.97541 32850 ft 393 kts 25°
2026-05-05 12:36 51.09747 19.99168 32844 ft 396 kts 14°
2026-05-05 12:36 51.12455 20.00036 32844 ft 398 kts
2026-05-05 12:37 51.15224 20.00109 32840 ft 398 kts 352°
2026-05-05 12:37 51.17949 19.99385 32839 ft 398 kts 342°
2026-05-05 12:37 51.23040 19.96002 32840 ft 398 kts 330°
2026-05-05 12:38 51.28163 19.92469 32833 ft 405 kts 338°
2026-05-05 12:38 51.33630 19.90042 32833 ft 409 kts 340°
2026-05-05 12:39 51.38914 19.87170 32828 ft 392 kts 336°
2026-05-05 12:39 51.44036 19.84528 32819 ft 381 kts 339°
2026-05-05 12:40 51.49024 19.81941 32813 ft 373 kts 337°
2026-05-05 12:40 51.53910 19.79347 32810 ft 367 kts 338°
2026-05-05 12:41 51.58749 19.76839 32806 ft 363 kts 338°
2026-05-05 12:41 51.63493 19.74334 32801 ft 359 kts 338°
2026-05-05 12:42 51.68233 19.71847 32803 ft 357 kts 337°
2026-05-05 12:42 51.72937 19.69360 32802 ft 355 kts 337°
2026-05-05 12:43 51.77620 19.66877 32801 ft 353 kts 337°
2026-05-05 12:43 51.82302 19.64494 32805 ft 352 kts 339°
2026-05-05 12:44 51.86988 19.62197 32809 ft 351 kts 339°
2026-05-05 12:44 51.91721 19.59875 32815 ft 360 kts 339°
2026-05-05 12:45 51.96575 19.57496 32818 ft 368 kts 339°
2026-05-05 12:45 52.01517 19.55061 32822 ft 374 kts 339°
2026-05-05 12:46 52.06534 19.52590 32825 ft 379 kts 339°
2026-05-05 12:46 52.11601 19.50084 32826 ft 382 kts 339°
2026-05-05 12:47 52.16668 19.47574 32826 ft 384 kts 339°
2026-05-05 12:47 52.21805 19.45022 32829 ft 386 kts 339°
2026-05-05 12:48 52.26959 19.42456 32828 ft 388 kts 339°
2026-05-05 12:48 52.32140 19.39870 32830 ft 390 kts 339°
2026-05-05 12:49 52.37311 19.37287 32831 ft 379 kts 339°
2026-05-05 12:49 52.39781 19.36058 32829 ft 362 kts 338°
2026-05-05 12:49 52.42141 19.34872 32818 ft 348 kts 338°
2026-05-05 12:50 52.44423 19.33718 32607 ft 341 kts 338°
2026-05-05 12:50 52.46694 19.32568 32183 ft 341 kts 338°
2026-05-05 12:50 52.48968 19.31423 31735 ft 342 kts 338°
2026-05-05 12:50 52.51250 19.30276 31285 ft 345 kts 338°
2026-05-05 12:51 52.53619 19.29071 30806 ft 367 kts 338°
2026-05-05 12:51 52.56124 19.27798 30296 ft 387 kts 338°
2026-05-05 12:51 52.58755 19.26473 29735 ft 403 kts 339°
2026-05-05 12:51 52.61477 19.25105 29167 ft 414 kts 339°
2026-05-05 12:52 52.64215 19.23723 28611 ft 408 kts 338°
2026-05-05 12:52 52.66895 19.22366 28096 ft 398 kts 338°
2026-05-05 12:52 52.69507 19.21035 27592 ft 388 kts 338°
2026-05-05 12:52 52.72037 19.19747 27368 ft 374 kts 338°
2026-05-05 12:53 52.74507 19.18486 26919 ft 368 kts 338°
2026-05-05 12:53 52.76941 19.17240 26452 ft 364 kts 338°
2026-05-05 12:53 52.79321 19.16023 25992 ft 360 kts 338°
2026-05-05 12:53 52.81701 19.14808 25531 ft 357 kts 338°
2026-05-05 12:54 52.86400 19.12399 24624 ft 350 kts 338°
2026-05-05 12:54 52.88718 19.11209 24175 ft 347 kts 338°
2026-05-05 12:54 52.91017 19.10028 23724 ft 345 kts 338°
2026-05-05 12:55 52.93302 19.08852 23248 ft 343 kts 338°
2026-05-05 12:55 52.95566 19.07688 22792 ft 338 kts 338°
2026-05-05 12:55 52.97800 19.06538 22363 ft 334 kts 337°
2026-05-05 12:55 53.00007 19.05398 21929 ft 330 kts 337°
2026-05-05 12:56 53.02194 19.04266 21500 ft 327 kts 337°
2026-05-05 12:56 53.04358 19.03147 21084 ft 324 kts 337°
2026-05-05 12:56 53.06506 19.02036 20663 ft 322 kts 337°
2026-05-05 12:56 53.08642 19.00928 20245 ft 320 kts 337°
2026-05-05 12:57 53.10759 18.99830 19836 ft 318 kts 337°
2026-05-05 12:57 53.12860 18.98738 19420 ft 316 kts 337°
2026-05-05 12:57 53.14931 18.97584 19006 ft 310 kts 332°
2026-05-05 12:57 53.16655 18.95582 18598 ft 298 kts 310°
2026-05-05 12:58 53.17823 18.92830 18219 ft 287 kts 291°
2026-05-05 12:58 53.18374 18.89699 17811 ft 278 kts 274°
2026-05-05 12:58 53.18319 18.86537 17446 ft 270 kts 259°
2026-05-05 12:58 53.18012 18.83468 17098 ft 267 kts 258°
2026-05-05 12:59 53.17716 18.80431 16747 ft 264 kts 259°
2026-05-05 12:59 53.17449 18.77407 16402 ft 262 kts 259°
2026-05-05 12:59 53.17185 18.74413 16058 ft 260 kts 259°
2026-05-05 13:00 53.16656 18.68470 15371 ft 259 kts 263°
2026-05-05 13:00 53.16938 18.65490 15031 ft 264 kts 283°
2026-05-05 13:01 53.18512 18.56761 14010 ft 260 kts 276°
2026-05-05 13:01 53.18837 18.53836 13669 ft 260 kts 277°
2026-05-05 13:01 53.19215 18.50891 13312 ft 259 kts 278°
2026-05-05 13:01 53.19618 18.47967 12961 ft 257 kts 278°
2026-05-05 13:02 53.20007 18.45057 12618 ft 256 kts 278°
2026-05-05 13:02 53.20381 18.42154 12281 ft 255 kts 277°
2026-05-05 13:02 53.20756 18.39257 11951 ft 256 kts 277°
2026-05-05 13:02 53.21135 18.36351 11608 ft 256 kts 277°
2026-05-05 13:03 53.21515 18.33440 11266 ft 256 kts 277°
2026-05-05 13:03 53.21885 18.30580 10935 ft 255 kts 277°
2026-05-05 13:03 53.22259 18.27690 10596 ft 254 kts 277°
2026-05-05 13:03 53.22632 18.24800 10263 ft 254 kts 277°
2026-05-05 13:04 53.23005 18.21910 9931 ft 254 kts 277°
2026-05-05 13:04 53.23377 18.19014 9573 ft 256 kts 277°
2026-05-05 13:04 53.23677 18.16105 9216 ft 252 kts 268°
2026-05-05 13:04 53.23356 18.13292 8878 ft 245 kts 245°
2026-05-05 13:05 53.22511 18.10876 8568 ft 243 kts 234°
2026-05-05 13:05 53.21565 18.08546 8250 ft 242 kts 234°
2026-05-05 13:05 53.20636 18.06192 7934 ft 242 kts 236°
2026-05-05 13:05 53.19727 18.03820 7610 ft 243 kts 236°
2026-05-05 13:06 53.18788 18.01380 7275 ft 256 kts 236°
2026-05-05 13:06 53.17822 17.98890 6941 ft 254 kts 236°
2026-05-05 13:06 53.16883 17.96478 6610 ft 242 kts 236°
2026-05-05 13:06 53.16105 17.94063 6291 ft 234 kts 250°
2026-05-05 13:07 53.15839 17.91422 5981 ft 228 kts 260°
2026-05-05 13:07 53.15650 17.88833 5683 ft 223 kts 260°
2026-05-05 13:07 53.15438 17.86290 5400 ft 219 kts 259°
2026-05-05 13:07 53.15219 17.83797 5125 ft 213 kts 259°
2026-05-05 13:08 53.15015 17.81419 4891 ft 201 kts 260°
2026-05-05 13:08 53.14824 17.79184 4598 ft 195 kts 260°
2026-05-05 13:08 53.14636 17.76982 4399 ft 186 kts 260°
2026-05-05 13:08 53.14451 17.74843 4014 ft 187 kts 260°
2026-05-05 13:09 53.14164 17.72729 3597 ft 189 kts 245°
2026-05-05 13:09 53.13302 17.71072 3139 ft 193 kts 215°
2026-05-05 13:09 53.12032 17.70356 2741 ft 194 kts 184°
2026-05-05 13:09 53.10734 17.70587 2671 ft 181 kts 172°
2026-05-05 13:10 53.09543 17.70957 2657 ft 169 kts 167°
2026-05-05 13:10 53.08555 17.71878 2650 ft 160 kts 139°
2026-05-05 13:10 53.07930 17.73348 2573 ft 157 kts 114°
2026-05-05 13:10 53.07734 17.75060 2440 ft 146 kts 90°
2026-05-05 13:11 53.07876 17.76762 2314 ft 153 kts 80°
2026-05-05 13:11 53.08052 17.78576 2174 ft 163 kts 81°
2026-05-05 13:11 53.08217 17.80472 2030 ft 171 kts 81°
2026-05-05 13:11 53.08384 17.82445 1883 ft 174 kts 81°
2026-05-05 13:12 53.08551 17.84391 1774 ft 170 kts 81°
2026-05-05 13:12 53.08716 17.86334 1542 ft 163 kts 79°
2026-05-05 13:12 53.08865 17.88098 1293 ft 144 kts 81°
2026-05-05 13:12 53.08996 17.89657 1086 ft 134 kts 79°
2026-05-05 13:13 53.09127 17.91198 882 ft 136 kts 79°
2026-05-05 13:13 53.09261 17.92732 665 ft 130 kts 77°
2026-05-05 13:13 53.09376 17.94189 488 ft 126 kts 78°
2026-05-05 13:13 53.09502 17.95631 305 ft 125 kts 77°
2026-05-05 13:14 53.09617 17.97009 242 ft 112 kts 77°
2026-05-05 13:14 53.09692 17.97809 242 ft 99 kts 81°
2026-05-05 13:14 53.09753 17.98614 236 ft 37 kts 91°
2026-05-05 13:14 53.09699 17.98725 236 ft 11 kts 166°
2026-05-05 13:15 53.09605 17.98751 237 ft 12 kts 172°
2026-05-05 13:15 53.09511 17.98798 237 ft 12 kts 115°
2026-05-05 13:15 53.09515 17.98906 237 ft 16 kts 83°
2026-05-05 13:15 53.09539 17.99194 237 ft 22 kts 80°
2026-05-05 13:16 53.09554 17.99375 237 ft 25 kts 84°
2026-05-05 13:16 53.09574 17.99599 237 ft 12 kts 81°
2026-05-05 13:16 53.09635 17.99653 237 ft 13 kts 349°
2026-05-05 13:16 53.09690 17.99703 237 ft 8 kts 41°
2026-05-05 13:17 53.09697 17.99714 237 ft 0 kts 41°